Stations météo

réclame
Mon MeteoGroup
Semmerzake, Belgique (6428): Température de l'air & dewpoint: 18.11.2017 17:00:00 - 24.11.2017 17:00:00 (CET)Semmerzake, Belgique (6428): Vitesse du vent & gusts: 18.11.2017 17:00:00 - 24.11.2017 17:00:00 (CET)Semmerzake, Belgique (6428): Direction du vent: 18.11.2017 17:00:00 - 24.11.2017 17:00:00 (CET)Semmerzake, Belgique (6428): reduced air pressure: 18.11.2017 17:00:00 - 24.11.2017 17:00:00 (CET)Semmerzake, Belgique (6428): visibility: 18.11.2017 17:00:00 - 24.11.2017 17:00:00 (CET)
Date & Time tt [°C] td [°C] ff [km/h] ff [knt] fx [km/h] fx [knt] dd ppp [hPa] vv [km]
24.11.2017 17:00:00 8,3 5,3 4 2 4 2 N 1012,0 13
24.11.2017 16:00:00 8,5 5,6 4 2 - - N 1012,2 19
24.11.2017 15:00:00 9,0 5,9 4 2 14 8 N 1011,8 18
24.11.2017 14:00:00 9,3 5,1 7 4 18 10 WSW 1012,1 20
24.11.2017 13:00:00 9,3 4,9 7 4 - - W 1012,0 19
24.11.2017 12:00:00 8,8 6,4 11 6 18 10 SW 1011,7 18
24.11.2017 11:00:00 8,4 6,3 7 4 14 8 WSW 1011,0 16
24.11.2017 10:00:00 7,1 6,5 7 4 - - N 1010,7 7
24.11.2017 09:00:00 6,4 5,9 4 2 7 4 N 1009,7 12
24.11.2017 08:00:00 6,4 5,9 4 2 11 6 N 1008,7 14
24.11.2017 07:00:00 6,9 6,7 4 2 - - N 1007,8 5
24.11.2017 06:00:00 6,5 6,4 4 2 11 6 N 1006,8 9
24.11.2017 05:00:00 6,9 6,7 7 4 11 6 N 1006,7 10
24.11.2017 04:00:00 7,1 6,9 4 2 - - N 1007,6 5
24.11.2017 03:00:00 7,5 6,6 4 2 11 6 N 1007,5 18
24.11.2017 02:00:00 8,1 6,9 7 4 14 8 SSW 1008,0 11
24.11.2017 01:00:00 8,5 6,0 11 6 - - S 1008,2 19
24.11.2017 00:00:00 7,6 5,6 11 6 18 10 S 1008,7 18
23.11.2017 23:00:00 8,2 5,8 7 4 22 12 SW 1009,2 19
23.11.2017 22:00:00 8,8 5,7 14 8 - - SSW 1009,3 18
23.11.2017 21:00:00 8,5 5,8 11 6 25 14 SW 1009,2 17
23.11.2017 20:00:00 8,7 5,7 14 8 25 14 SSW 1008,6 18
23.11.2017 19:00:00 8,4 5,2 14 8 - - SSW 1008,1 19
23.11.2017 18:00:00 8,8 4,6 11 6 29 16 SSW 1007,3 20
23.11.2017 17:00:00 10,1 4,6 14 8 43 23 WSW 1006,7 20
23.11.2017 16:00:00 11,6 5,6 22 12 - - WSW 1005,6 20
23.11.2017 15:00:00 11,6 8,3 18 10 47 25 WSW 1004,7 20
23.11.2017 14:00:00 13,1 8,7 18 10 58 31 W 1003,5 20
23.11.2017 13:00:00 14,6 10,5 32 18 - - SSW 1001,2 10
23.11.2017 12:00:00 14,1 10,4 32 18 50 27 SSW 1000,6 20
23.11.2017 11:00:00 13,5 10,3 29 16 54 29 SSW 1000,1 19
23.11.2017 10:00:00 12,5 10,0 29 16 - - SSW 999,2 11
23.11.2017 09:00:00 12,7 9,2 36 19 68 37 SSW 997,7 6
23.11.2017 08:00:00 13,5 6,7 43 23 72 39 SSW 996,1 20
23.11.2017 07:00:00 13,3 6,0 36 19 - - SSW 995,6 20
23.11.2017 06:00:00 12,2 5,0 32 18 54 29 S 995,4 20
23.11.2017 05:00:00 12,3 4,8 32 18 54 29 S 996,3 20
23.11.2017 04:00:00 12,5 4,3 36 19 - - S 997,2 20
23.11.2017 03:00:00 12,6 4,0 29 16 50 27 SSW 998,1 20
23.11.2017 02:00:00 12,2 4,1 29 16 50 27 S 998,1 20
23.11.2017 01:00:00 12,1 4,2 29 16 - - S 998,6 20
23.11.2017 00:00:00 11,7 4,0 29 16 50 27 S 999,4 20
22.11.2017 23:00:00 11,5 4,1 29 16 50 27 SSW 1000,2 20
22.11.2017 22:00:00 11,5 4,1 25 14 - - S 1000,5 20
22.11.2017 21:00:00 11,1 4,0 22 12 47 25 S 1000,8 20
22.11.2017 20:00:00 10,8 4,4 29 16 50 27 S 1001,2 20
22.11.2017 19:00:00 10,7 4,7 25 14 - - S 1002,1 20
22.11.2017 18:00:00 10,3 5,1 18 10 36 19 S 1003,2 19
22.11.2017 17:00:00 10,8 5,8 22 12 40 21 S 1003,1 18
22.11.2017 16:00:00 11,5 6,3 22 12 - - S 1003,8 16
22.11.2017 15:00:00 12,3 6,4 29 16 43 23 S 1004,7 19
22.11.2017 14:00:00 12,4 7,0 22 12 40 21 S 1005,3 13
22.11.2017 13:00:00 11,6 7,1 25 14 - - S 1006,2 13
22.11.2017 12:00:00 11,1 7,3 29 16 47 25 S 1006,7 15
22.11.2017 11:00:00 10,3 7,7 22 12 47 25 S 1007,7 10
22.11.2017 10:00:00 9,8 7,5 25 14 - - S 1007,6 12
22.11.2017 09:00:00 9,8 7,5 29 16 43 23 SSW 1007,7 10
22.11.2017 08:00:00 10,1 7,9 25 14 43 23 SSW 1007,7 10
22.11.2017 07:00:00 10,2 7,8 25 14 - - SSW 1007,6 11
22.11.2017 06:00:00 10,8 7,8 25 14 43 23 SSW 1007,7 13
22.11.2017 05:00:00 10,3 7,8 25 14 40 21 SSW 1007,8 11
22.11.2017 04:00:00 10,8 7,9 25 14 - - SSW 1008,2 16
22.11.2017 03:00:00 10,8 7,7 25 14 47 25 SSW 1008,7 19
22.11.2017 02:00:00 10,8 7,7 25 14 47 25 SSW 1009,2 18
22.11.2017 01:00:00 10,7 7,7 25 14 - - SSW 1009,7 19
22.11.2017 00:00:00 10,5 7,8 25 14 36 19 SSW 1010,0 17
21.11.2017 23:00:00 10,3 7,9 22 12 36 19 SSW 1010,1 15
21.11.2017 22:00:00 10,3 7,8 25 14 - - SSW 1010,6 17
21.11.2017 21:00:00 10,3 7,8 25 14 40 21 SSW 1010,8 15
21.11.2017 20:00:00 10,1 7,8 22 12 43 23 SSW 1011,2 16
21.11.2017 19:00:00 10,3 8,0 25 14 - - SSW 1011,3 16
21.11.2017 18:00:00 10,3 8,2 22 12 32 18 SSW 1011,7 18
21.11.2017 17:00:00 10,5 8,5 18 10 32 18 SSW 1012,2 20
21.11.2017 16:00:00 10,8 8,6 18 10 - - SSW 1012,2 19
21.11.2017 15:00:00 11,1 8,8 18 10 29 16 SSW 1012,6 16
21.11.2017 14:00:00 11,1 9,0 18 10 29 16 SSW 1013,0 19
21.11.2017 13:00:00 10,8 9,2 14 8 - - SSW 1013,6 18
21.11.2017 12:00:00 10,8 9,4 14 8 29 16 SW 1014,2 15
21.11.2017 11:00:00 10,9 9,8 18 10 32 18 SSW 1014,1 11
21.11.2017 10:00:00 10,8 10,4 18 10 - - SW 1013,8 2,9
21.11.2017 09:00:00 11,3 10,9 18 10 29 16 SW 1013,5 6
21.11.2017 08:00:00 11,5 11,2 14 8 25 14 SW 1013,2 8
21.11.2017 07:00:00 11,6 11,4 14 8 - - WSW 1013,1 2,8
21.11.2017 06:00:00 11,5 11,3 14 8 25 14 WSW 1013,2 3,4
21.11.2017 05:00:00 11,5 11,3 14 8 25 14 WSW 1013,3 2,8
21.11.2017 04:00:00 11,5 11,4 11 6 - - WSW 1013,5 2,8
21.11.2017 03:00:00 11,6 11,3 11 6 25 14 WSW 1013,7 4,4
21.11.2017 02:00:00 11,6 11,2 11 6 22 12 WSW 1013,7 5
21.11.2017 01:00:00 11,6 11,1 14 8 - - WSW 1013,8 8
21.11.2017 00:00:00 11,6 11,0 14 8 22 12 WSW 1013,7 11
20.11.2017 23:00:00 11,8 10,8 14 8 25 14 W 1013,6 12
20.11.2017 22:00:00 11,6 10,9 14 8 - - W 1013,7 13
20.11.2017 21:00:00 11,0 10,8 14 8 22 12 WSW 1013,7 8
20.11.2017 20:00:00 10,3 10,1 14 8 29 16 SW 1013,7 5
20.11.2017 19:00:00 9,8 9,6 18 10 - - SW 1013,2 6
20.11.2017 18:00:00 9,6 9,5 18 10 29 16 SW 1013,5 1,7
20.11.2017 17:00:00 9,3 9,0 14 8 32 18 SW 1014,0 4,7
20.11.2017 16:00:00 9,1 8,8 14 8 - - SW 1014,2 4,1
20.11.2017 15:00:00 8,3 8,1 18 10 36 19 SW 1014,7 4,1
20.11.2017 14:00:00 7,6 7,3 22 12 36 19 SSW 1015,6 4,6
20.11.2017 13:00:00 6,8 6,5 18 10 - - SSW 1016,7 2,0
20.11.2017 12:00:00 6,0 5,6 22 12 36 19 SSW 1017,6 4,6
20.11.2017 11:00:00 5,2 4,8 18 10 32 18 S 1018,1 4,6
20.11.2017 10:00:00 4,7 3,9 18 10 - - SSW 1019,2 2,1
20.11.2017 09:00:00 3,9 2,7 14 8 22 12 S 1019,7 13
20.11.2017 08:00:00 3,7 1,9 11 6 18 10 S 1020,5 16
20.11.2017 07:00:00 3,5 1,6 11 6 - - SSW 1021,1 20
20.11.2017 06:00:00 3,2 1,4 11 6 18 10 SSW 1021,2 19
20.11.2017 05:00:00 2,8 1,5 11 6 14 8 S 1021,6 15
20.11.2017 04:00:00 3,0 1,4 11 6 - - SSW 1022,2 13
20.11.2017 03:00:00 2,4 1,4 7 4 11 6 SSW 1022,8 10
20.11.2017 02:00:00 2,0 1,0 7 4 11 6 SSW 1023,2 9
20.11.2017 01:00:00 2,5 1,3 7 4 - - SSW 1024,0 12
20.11.2017 00:00:00 2,5 1,3 7 4 11 6 SSW 1024,2 15
19.11.2017 23:00:00 2,0 0,6 7 4 11 6 SSW 1024,2 16
19.11.2017 22:00:00 2,7 1,1 7 4 - - SW 1024,5 18
19.11.2017 21:00:00 3,2 1,6 7 4 14 8 SW 1024,0 18
19.11.2017 20:00:00 3,2 1,8 7 4 14 8 WSW 1023,8 14
19.11.2017 19:00:00 3,6 1,9 7 4 - - WSW 1023,7 13
19.11.2017 18:00:00 4,3 2,1 7 4 11 6 WSW 1023,2 17
19.11.2017 17:00:00 6,1 2,8 7 4 18 10 N 1023,0 20
19.11.2017 16:00:00 7,5 2,6 11 6 - - WNW 1022,7 20
19.11.2017 15:00:00 7,8 3,3 7 4 25 14 WNW 1022,3 20
19.11.2017 14:00:00 8,6 3,3 14 8 25 14 NW 1022,2 18
19.11.2017 13:00:00 8,3 2,8 14 8 - - WNW 1022,2 18
19.11.2017 12:00:00 7,8 3,3 14 8 25 14 W 1022,1 17
19.11.2017 11:00:00 7,1 3,0 7 4 18 10 W 1021,7 20
19.11.2017 10:00:00 5,0 1,3 7 4 - - W 1021,5 20
19.11.2017 09:00:00 3,4 0,3 7 4 14 8 W 1020,8 20
19.11.2017 08:00:00 2,5 -0,6 7 4 11 6 W 1020,2 20
19.11.2017 07:00:00 2,2 -0,7 7 4 - - W 1019,8 20
19.11.2017 06:00:00 3,6 -0,5 7 4 11 6 W 1019,3 20
19.11.2017 05:00:00 4,5 -0,5 7 4 14 8 WNW 1019,3 20
19.11.2017 04:00:00 5,3 -0,5 7 4 - - WNW 1018,8 20
19.11.2017 03:00:00 5,9 0,0 11 6 18 10 NW 1018,8 20
19.11.2017 02:00:00 6,4 2,6 4 2 11 6 N 1018,5 20
19.11.2017 01:00:00 6,9 2,9 7 4 - - WNW 1018,6 20
19.11.2017 00:00:00 7,0 5,0 7 4 14 8 W 1018,3 17
18.11.2017 23:00:00 7,0 5,8 7 4 14 8 W 1018,3 16
18.11.2017 22:00:00 7,3 5,9 7 4 - - W 1018,5 15
18.11.2017 21:00:00 7,0 6,1 7 4 18 10 WSW 1018,7 12
18.11.2017 20:00:00 7,0 6,4 11 6 18 10 WSW 1019,0 13
18.11.2017 19:00:00 7,1 6,4 11 6 - - SW 1019,5 15
18.11.2017 18:00:00 7,1 6,7 14 8 29 16 WSW 1020,0 8
18.11.2017 17:00:00 8,5 5,3 14 8 25 14 W 1020,1 20

tt = Température de l'air
td = dewpoint
ff = Vitesse du vent
fx = gusts
dd = Direction du vent
ppp = reduced air pressure
vv = visibility

stations d'obs. à proximité